Location: Newark
(35.6799°N, 139.7636°E)
Time: 21:06:18
(UTC+00:00)

Explorer 11/Cluster Stage 4 - Visible Passes

Search period start: 11 December 2019 00:00
Search period end: 21 December 2019 00:00
Orbit: 467 x 1259 km, 28.8° (Epoch: 11 December)

Date Brightness Start Highest point End Pass type
(mag) Time Alt. Az. Time Alt. Az. Time Alt. Az.
15 Dec 10.0 19:47:16 10° S 19:50:09 12° SSE 19:53:02 10° SE visible
16 Dec 9.8 19:35:11 10° S 19:39:11 14° SSE 19:43:11 10° ESE visible
17 Dec 9.7 19:23:29 10° S 19:28:11 17° SSE 19:32:58 10° ESE visible
17 Dec 9.0 21:09:23 10° SW 21:16:42 36° SSE 21:23:47 10° E visible
18 Dec 9.5 19:12:00 10° SSW 19:17:12 19° SSE 19:22:33 10° ESE visible
18 Dec 8.8 20:58:18 10° SW 21:05:44 39° SSE 21:13:03 10° E visible
19 Dec 9.3 19:01:11 12° SSW 19:06:12 21° SSE 19:12:00 10° ESE visible
19 Dec 8.6 20:47:16 10° SW 20:54:46 42° SSE 21:02:17 10° E visible
20 Dec 9.1 18:51:55 18° S 18:55:11 24° SSE 19:01:20 10° ESE visible
20 Dec 8.5 20:36:19 10° SW 20:43:47 44° SSE 20:51:28 10° E visible
